Total_Precipitation_Accumulation
0.01 0.01 0.00 0.00 0.00 0.00 0.00 0.00 0.01 0.02 0.02 0.02 0.02 0.05 0.08 0.14 0.24 0.22 0.25 0.25 0.27 0.21 0.18 0.18 0.16 0.15 0.16 0.18 0.21 0.23 0.19 0.13 0.08 0.03 0.00 0.00 0.00 0.00 0.00 0.00 0.00 0.00 0.00
0.01 0.00 0.00 0.00 0.00 0.00 0.00 0.01 0.03 0.06 0.06 0.06 0.06 0.06 0.07 0.08 0.12 0.15 0.20 0.24 0.26 0.23 0.22 0.21 0.17 0.14 0.16 0.25 0.27 0.26 0.30 0.26 0.21 0.12 0.03 0.00 0.00 0.00 0.00 0.00 0.00 0.00 0.00
0.01 0.01 0.01 0.01 0.01 0.01 0.02 0.05 0.12 0.17 0.20 0.21 0.20 0.15 0.12 0.12 0.13 0.19 0.23 0.22 0.25 0.26 0.22 0.18 0.17 0.17 0.19 0.23 0.34 0.40 0.43 0.39 0.39 0.30 0.13 0.04 0.01 0.00 0.00 0.00 0.00 0.00 0.00
0.02 0.04 0.05 0.04 0.04 0.06 0.13 0.25 0.39 0.46 0.45 0.38 0.27 0.20 0.14 0.14 0.14 0.16 0.15 0.14 0.18 0.15 0.09 0.13 0.20 0.26 0.35 0.38 0.50 0.52 0.52 0.48 0.42 0.42 0.27 0.15 0.08 0.03 0.01 0.00 0.00 0.00 0.00
0.04 0.10 0.14 0.15 0.21 0.30 0.46 0.64 0.75 0.73 0.61 0.42 0.28 0.22 0.16 0.17 0.15 0.12 0.12 0.13 0.13 0.11 0.08 0.11 0.15 0.18 0.22 0.28 0.35 0.33 0.39 0.44 0.45 0.45 0.42 0.32 0.26 0.11 0.03 0.01 0.00 0.00 0.00
0.07 0.18 0.29 0.39 0.51 0.61 0.73 0.84 0.85 0.78 0.58 0.36 0.23 0.17 0.14 0.13 0.12 0.12 0.13 0.11 0.08 0.07 0.06 0.08 0.15 0.19 0.13 0.17 0.22 0.22 0.30 0.34 0.38 0.43 0.42 0.41 0.46 0.42 0.24 0.12 0.05 0.01 0.00
0.16 0.32 0.47 0.60 0.69 0.77 0.82 0.80 0.71 0.60 0.43 0.28 0.19 0.14 0.11 0.09 0.11 0.16 0.10 0.06 0.04 0.03 0.03 0.03 0.10 0.16 0.15 0.21 0.17 0.07 0.12 0.23 0.29 0.34 0.38 0.41 0.43 0.46 0.43 0.37 0.25 0.13 0.04
0.35 0.47 0.53 0.59 0.64 0.72 0.77 0.74 0.61 0.49 0.34 0.22 0.16 0.13 0.10 0.06 0.04 0.04 0.02 0.01 0.02 0.01 0.01 0.01 0.02 0.04 0.05 0.13 0.19 0.10 0.06 0.07 0.13 0.21 0.28 0.32 0.39 0.44 0.39 0.37 0.33 0.23 0.14
0.53 0.65 0.64 0.60 0.50 0.48 0.50 0.48 0.38 0.32 0.26 0.20 0.17 0.13 0.09 0.05 0.03 0.01 0.01 0.00 0.00 0.00 0.00 0.00 0.00 0.01 0.02 0.05 0.11 0.18 0.18 0.09 0.07 0.11 0.17 0.16 0.17 0.21 0.23 0.29 0.29 0.19 0.12
0.51 0.73 0.87 0.76 0.50 0.32 0.28 0.25 0.23 0.21 0.20 0.18 0.16 0.13 0.08 0.05 0.04 0.03 0.01 0.01 0.00 0.00 0.00 0.00 0.00 0.01 0.03 0.09 0.13 0.09 0.12 0.11 0.11 0.12 0.12 0.14 0.12 0.11 0.11 0.17 0.26 0.21 0.12
0.50 0.70 0.77 0.59 0.42 0.26 0.21 0.19 0.18 0.21 0.21 0.17 0.17 0.13 0.08 0.07 0.05 0.04 0.02 0.01 0.01 0.00 0.01 0.02 0.02 0.03 0.04 0.03 0.01 0.01 0.01 0.03 0.05 0.05 0.07 0.11 0.14 0.12 0.10 0.10 0.18 0.23 0.18
0.11 0.22 0.30 0.23 0.18 0.15 0.13 0.17 0.22 0.24 0.18 0.14 0.14 0.12 0.09 0.07 0.05 0.04 0.03 0.02 0.02 0.02 0.02 0.02 0.03 0.04 0.02 0.02 0.01 0.01 0.00 0.00 0.01 0.01 0.03 0.06 0.11 0.13 0.14 0.13 0.16 0.20 0.22
0.03 0.04 0.05 0.07 0.06 0.06 0.09 0.16 0.29 0.32 0.26 0.20 0.15 0.14 0.12 0.09 0.06 0.04 0.04 0.03 0.04 0.05 0.05 0.02 0.03 0.05 0.05 0.03 0.01 0.01 0.00 0.00 0.00 0.01 0.02 0.04 0.07 0.09 0.14 0.19 0.24 0.25 0.24
0.05 0.03 0.03 0.04 0.04 0.05 0.08 0.18 0.38 0.50 0.46 0.39 0.28 0.22 0.17 0.12 0.10 0.09 0.09 0.08 0.08 0.09 0.08 0.06 0.05 0.09 0.10 0.07 0.03 0.02 0.01 0.00 0.00 0.01 0.01 0.02 0.04 0.08 0.17 0.26 0.30 0.29 0.27
0.05 0.06 0.05 0.06 0.06 0.06 0.09 0.20 0.43 0.57 0.54 0.53 0.46 0.35 0.25 0.18 0.17 0.21 0.25 0.20 0.15 0.16 0.14 0.11 0.09 0.12 0.13 0.11 0.08 0.05 0.03 0.01 0.00 0.00 0.01 0.01 0.02 0.06 0.13 0.25 0.35 0.35 0.31
0.09 0.12 0.11 0.10 0.07 0.07 0.09 0.17 0.33 0.46 0.49 0.53 0.52 0.39 0.33 0.27 0.25 0.28 0.36 0.36 0.25 0.23 0.21 0.18 0.12 0.09 0.12 0.16 0.13 0.09 0.05 0.01 0.00 0.00 0.01 0.01 0.01 0.03 0.07 0.11 0.21 0.30 0.33
0.19 0.21 0.21 0.19 0.16 0.13 0.13 0.16 0.23 0.31 0.36 0.40 0.40 0.31 0.29 0.36 0.37 0.40 0.40 0.33 0.25 0.27 0.29 0.24 0.18 0.12 0.12 0.14 0.13 0.16 0.14 0.05 0.02 0.01 0.01 0.01 0.01 0.02 0.03 0.06 0.13 0.16 0.20
0.27 0.24 0.20 0.18 0.15 0.12 0.12 0.13 0.15 0.18 0.20 0.19 0.16 0.13 0.20 0.29 0.30 0.29 0.26 0.21 0.21 0.27 0.34 0.28 0.24 0.23 0.18 0.17 0.21 0.19 0.13 0.07 0.04 0.03 0.01 0.01 0.01 0.01 0.03 0.04 0.06 0.09 0.13
0.12 0.08 0.05 0.04 0.03 0.03 0.03 0.03 0.02 0.02 0.02 0.02 0.02 0.04 0.05 0.06 0.06 0.05 0.07 0.10 0.14 0.18 0.16 0.20 0.33 0.31 0.26 0.30 0.27 0.18 0.09 0.06 0.06 0.07 0.04 0.02 0.01 0.01 0.03 0.05 0.05 0.04 0.08
0.01 0.00 0.00 0.00 0.00 0.00 0.00 0.00 0.00 0.00 0.00 0.00 0.00 0.00 0.00 0.00 0.00 0.00 0.01 0.03 0.06 0.08 0.08 0.11 0.21 0.27 0.28 0.26 0.15 0.15 0.15 0.14 0.15 0.12 0.07 0.05 0.03 0.02 0.03 0.07 0.07 0.04 0.05
0.00 0.00 0.00 0.00 0.00 0.00 0.00 0.00 0.00 0.00 0.00 0.00 0.00 0.00 0.00 0.00 0.00 0.00 0.00 0.00 0.00 0.01 0.03 0.06 0.06 0.08 0.09 0.09 0.08 0.12 0.12 0.12 0.12 0.09 0.05 0.04 0.04 0.03 0.05 0.07 0.06 0.05 0.06
0.00 0.00 0.00 0.00 0.00 0.00 0.00 0.00 0.00 0.00 0.00 0.00 0.00 0.00 0.00 0.00 0.00 0.00 0.00 0.00 0.00 0.00 0.00 0.01 0.00 0.01 0.01 0.01 0.02 0.02 0.03 0.04 0.03 0.03 0.04 0.05 0.06 0.06 0.08 0.07 0.05 0.06 0.05
0.00 0.00 0.00 0.00 0.00 0.00 0.00 0.00 0.00 0.00 0.00 0.00 0.00 0.00 0.00 0.00 0.00 0.00 0.00 0.00 0.00 0.00 0.00 0.00 0.00 0.01 0.02 0.01 0.01 0.01 0.01 0.02 0.01 0.03 0.07 0.10 0.13 0.09 0.06 0.06 0.05 0.04 0.05
0.00 0.00 0.00 0.00 0.00 0.00 0.00 0.00 0.00 0.00 0.00 0.00 0.00 0.00 0.00 0.00 0.00 0.00 0.00 0.00 0.00 0.00 0.00 0.00 0.01 0.04 0.04 0.03 0.02 0.01 0.02 0.02 0.02 0.03 0.08 0.14 0.16 0.11 0.07 0.05 0.04 0.04 0.05
0.00 0.00 0.00 0.00 0.00 0.00 0.00 0.00 0.00 0.00 0.00 0.00 0.00 0.00 0.00 0.00 0.00 0.00 0.00 0.00 0.00 0.00 0.00 0.00 0.01 0.01 0.01 0.01 0.02 0.04 0.05 0.04 0.03 0.05 0.12 0.20 0.17 0.12 0.08 0.06 0.05 0.05 0.05
0.00 0.00 0.00 0.00 0.00 0.00 0.00 0.00 0.00 0.00 0.00 0.00 0.00 0.00 0.00 0.00 0.00 0.00 0.00 0.00 0.00 0.01 0.01 0.01 0.01 0.01 0.01 0.03 0.05 0.09 0.11 0.10 0.11 0.12 0.21 0.26 0.25 0.21 0.14 0.08 0.06 0.06 0.06